OBJECT E, 61898

Orbit data source: Space-Track

You're viewing an Uncataloged Satellite

Recently launched and/or uncataloged satellites may have evolving metadata. Metadata may include but not limited to: Owner, Maufacturer, Bus, Motor, and Mission.

OBJECT E, 61898 is a Chinese satellite in SSO that was launched on Mon, 11 Nov 2024 UTC via a LIJIAN-1 launch vehicle from the Jiuquan Satellite Launch Center, China (JSC). Unknown objects in Earth's orbit typically refer to objects detected orbiting the Earth but have not yet been identified or cataloged. These objects could be anything from previously untracked satellites, spent rocket stages, debris from satellite collisions, or even natural meteoroids temporarily captured by Earth's gravity.

Loading next visibility...
Identifier
61898, 2024-205E
Orbit
SSO
Country
Flag of CNCN / PRC
Related business
None
Manufacturer
Changguang WJ
Mission
Operational Commercial Imaging
Bus & Motor
JL-1, Unknown motor
Mass
42 kg wet, 42 kg dry
Launch date (UTC)
2024-11-11 (10 months ago)
Launch vehicle
LIJIAN-1
Launch site
Jiuquan Satellite Launch Center, China (JSC)
Object type
Unknown
Shape & HBR
Box, 0.8 m
Radar Cross Section
2.000 m², Medium (>0.1 m² and < 1m²)

Expand to show TLE details & history
Last TLE update: 5 hours ago

TLE from 5 hours ago
0 OBJECT E
1 61898U 24205E   25261.30727811  .00009304  00000-0  48048-3 0  9993
2 61898  97.4435 333.0759 0026174 255.3431 104.4900 15.16221752 47044
Epoch: 2025-09-18T07:22Z
TLE epoch observation values (Epoch: 2025-09-18T07:22:28.828Z)
Latitude
-0.00004°
Longitude
-135.01496°
Altitude
524.917 km
Speed
7.598 km/s
True Right ascension
22h 12m 18s
True Declination
0° 00' 00"
Sunlit
Object was in full shadow at epoch
Visualization orbit readout
Latitude
Unknown
Longitude
Unknown
Altitude
Unknown
Speed
Unknown
Apparent Right ascension
Unknown
Apparent Declination
Unknown
Sunlit
N/A
Visualization observer readout
Local Sidereal Time
04:58:00
Azimuth
Unknown
Elevation
Unknown
Doppler factor
Unknown
Orbital elements
Apogee altitude
532.284 km
Perigee altitude
496.204 km
Semi-major axis
6,892.381 km
Eccentricity
0.00262
Inclination
97.4435°
RAAN
333.0759°
Arg. of periapsis
255.3431°
True anomaly
104.78015°
Mean anomaly
104.49°
Eccentric anomaly
104.6351°
Mean motion
3.79306 °/min
Orbital period
94.91 mins
BSTAR
0.00048048
Loading maneuver chart data...
Computing Atmospheric mass density...
Loading historical data...
Loading historical data...
Loading historical data...
Loading historical data...
Loading historical data...
Loading historical data...
Loading historical data...

Documentation

Showing up to 5 results
|